#timestamp,LO_Frequency,Hit,StdDev 
1596333615.4,286047003.9,N
1596333635.2,286047003.5,N
1596333655.0,286047004.4,N
1596333656.0,286047004.4,N
1596333675.8,286047001.3,N
1596333695.6,286047001.7,N
1596333715.5,286047001.4,N
1596333735.3,286047001.3,N
1596333755.1,286047004.2,N
1596333775.9,286047003.5,N
1596333795.7,286047004.4,N
1596333815.6,286047002.0,N
1596333835.4,286047002.3,N
1596333855.2,286047003.7,N
1596333875.7,286047004.3,N
1596333895.5,286047004.1,N
1596333915.3,286047002.9,N
1596333935.2,286047003.8,N
1596333955.0,286047005.1,Y
1596333955.9,286047005.1,P
1596333975.8,286047001.9,N
1596333995.6,286046999.7,N
1596334015.4,286047000.2,N
1596334035.3,286047002.5,N
1596334055.1,286047002.2,N
1596334075.9,286046999.9,N
1596334095.7,286047002.6,N
1596334115.5,286047002.3,N
1596334135.4,286047002.0,N
1596334155.2,286047001.9,N
1596334175.0,286047001.9,N
1596334175.9,286047001.9,N
1596334195.8,286047002.4,N
1596334215.6,286047002.3,N
1596334235.5,286047000.3,N
1596334255.3,286047000.0,N
1596334275.1,286047000.4,N
1596334295.9,286047000.6,N
1596334315.7,286047000.3,N
1596334335.5,286047000.1,N
1596334355.4,286047000.5,N
1596334375.2,286047000.5,N
1596334395.1,286046999.9,N
1596334396.0,286046999.9,N
1596334415.8,286047000.1,N
1596334435.6,286046999.8,N
1596334455.5,286047002.7,N
1596334475.3,286047002.5,N
1596334495.2,286046999.9,N
1596334515.9,286046999.8,N
1596334535.7,286047000.9,N
1596334555.6,286046999.9,N
1596334575.4,286047000.1,N
1596334595.2,286047000.1,N
1596334615.1,286047002.7,N
1596334616.0,286047002.7,N
1596334635.8,286047000.1,N
1596334655.7,286046999.8,N
1596334675.5,286047000.7,N
1596334695.3,286047000.2,N
1596334715.2,286047000.3,N
1596334735.0,286047000.3,N
1596334735.9,286047000.3,N
1596334755.8,286047000.8,N
1596334775.6,286047002.4,N
1596334795.4,286047002.8,N
1596334815.3,286047002.8,N
1596334835.1,286047002.7,N
1596334855.8,286047003.0,N
1596334875.7,286047003.7,Y
1596334895.5,286047002.1,P
1596334915.4,286047002.4,P
1596334935.2,286047003.5,P
1596334955.0,286047001.6,N
1596334955.9,286047001.6,N
1596334975.8,286047002.1,N
1596334995.6,286047000.0,N
1596335015.4,286046999.7,N
1596335035.3,286047001.4,N
1596335055.1,286047001.6,N
1596335075.9,286047002.2,N
1596335095.7,286047002.2,N
1596335115.5,286047002.7,N
1596335135.4,286047003.7,Y
1596335155.2,286047001.1,P
1596335175.1,286046998.2,P
1596335176.0,286046998.2,N
1596335195.8,286047001.0,N
1596335215.6,286046998.3,N
1596335235.5,286046998.4,N
1596335255.3,286047002.2,N
1596335275.1,286047000.2,N
1596335295.9,286046998.1,N
1596335315.7,286047000.5,N
1596335335.6,286046998.1,N
1596335355.4,286047000.6,N
1596335375.2,286046999.7,N
1596335395.1,286046998.2,N
1596335396.0,286046998.2,N
1596335415.8,286047000.4,N
1596335435.7,286046998.5,N
1596335455.5,286046998.8,N
1596335475.3,286047000.9,N
1596335495.2,286046998.6,N
1596335515.9,286046999.4,N
1596335535.7,286046998.7,N
1596335555.6,286046998.3,N
1596335575.4,286046998.1,N
1596335595.3,286046998.1,N
1596335615.1,286046998.1,N
1596335616.0,286046998.1,N
1596335635.8,286047001.2,N
1596335655.7,286046998.5,N
1596335675.5,286046998.3,N
1596335695.4,286046998.2,N
1596335715.2,286046998.3,N
1596335735.0,286046998.2,N
1596335735.9,286046998.2,N
1596335755.8,286047000.8,N
1596335775.6,286047000.4,N
1596335795.4,286047000.5,N
1596335815.3,286047001.2,N
1596335835.1,286047000.7,N
1596335855.9,286047000.3,N
1596335875.7,286047000.2,N
1596335895.5,286047001.4,N
1596335915.4,286047002.4,N
1596335935.2,286047002.5,N
1596335955.1,286047002.8,N
1596335956.0,286047002.8,N
1596335975.8,286047001.9,N
1596335995.7,286047001.8,N
1596336015.5,286047004.3,N
1596336035.8,286047002.7,N
1596336055.6,286046999.9,N
1596336075.5,286047002.4,N
1596336095.3,286047001.6,N
1596336115.2,286047001.6,N
1596336135.9,286047004.3,N
1596336155.7,286047003.2,N
1596336175.6,286047002.2,N
1596336195.4,286047001.5,N
1596336215.2,286047001.5,N
1596336235.1,286047001.9,N
1596336236.0,286047001.9,N
1596336255.8,286047004.0,N
1596336275.7,286047005.5,Y
1596336295.5,286047001.9,P
1596336315.3,286047001.5,P
1596336335.2,286047002.1,P
1596336355.0,286047001.6,Y
1596336355.9,286047001.6,P
1596336375.8,286046998.7,P
1596336395.6,286046998.9,N
1596336415.4,286046999.2,N
1596336435.3,286046999.5,N
1596336455.1,286046998.4,N
1596336475.9,286046998.4,N
1596336495.7,286046999.1,N
1596336515.5,286046998.8,N
1596336535.4,286046999.2,N
1596336555.2,286047000.3,N
1596336575.0,286046998.8,N
1596336575.9,286046998.8,N
1596336595.8,286046999.4,N
1596336615.6,286046998.7,N
1596336635.5,286046999.4,N
1596336655.3,286046998.6,N
1596336675.1,286046998.4,N
1596336695.9,286046996.5,Y
1596336715.7,286046996.6,P
1596336735.6,286046998.4,N
1596336755.4,286046998.4,N
1596336775.2,286046999.5,N
1596336795.1,286046997.3,N
1596336796.0,286046997.3,N
1596336815.8,286046997.6,N
1596336835.6,286046996.8,Y
1596336855.5,286046998.1,P
1596336875.3,286046998.7,P
1596336895.2,286046999.0,P
1596336915.9,286046998.4,Y
1596336935.7,286047000.6,P
1596336955.6,286047001.0,N
1596336975.4,286047000.5,N
1596336995.3,286047000.9,N
1596337015.1,286047000.8,N
1596337016.0,286047000.8,N
1596337035.8,286047000.8,N
1596337055.7,286046999.4,N
1596337075.5,286046998.3,N
1596337095.4,286046999.5,N
1596337115.2,286046996.7,Y
1596337135.0,286046996.7,P
1596337135.9,286046996.7,N
1596337155.8,286046997.0,N
1596337175.6,286046997.7,N
1596337195.5,286046995.4,Y
